2024/04/15 11:50:00,0.0,27.2
2024/04/15 12:00:00,0.0,27.2
2024/04/15 12:10:00,0.0,27.8
2024/04/15 12:20:00,0.0,28.7
2024/04/15 12:30:00,0.0,28.2
2024/04/15 12:40:00,0.0,28.1
2024/04/15 12:50:00,0.0,28.2
2024/04/15 13:00:00,0.0,28.0
2024/04/15 13:10:00,0.0,28.1
2024/04/15 13:20:00,0.0,27.9
2024/04/15 13:30:00,0.0,27.5
2024/04/15 13:40:00,0.0,27.7
2024/04/15 13:50:00,0.0,28.0
2024/04/15 14:00:00,0.0,27.9
2024/04/15 14:10:00,0.0,27.9
2024/04/15 14:20:00,0.0,27.9
2024/04/15 14:30:00,0.0,28.0
2024/04/15 14:40:00,0.0,27.9
2024/04/15 14:50:00,0.0,27.7
2024/04/15 15:00:00,0.0,27.6
2024/04/15 15:10:00,0.0,27.3
2024/04/15 15:20:00,0.0,27.1
2024/04/15 15:30:00,0.0,26.5
2024/04/15 15:40:00,0.1,26.3
2024/04/15 15:50:00,0.0,26.0
2024/04/15 16:00:00,0.0,25.7
2024/04/15 16:10:00,0.0,25.5
2024/04/15 16:20:00,0.0,25.3
2024/04/15 16:30:00,0.0,25.0
2024/04/15 16:40:00,0.0,24.9
2024/04/15 16:50:00,0.0,24.8
2024/04/15 17:00:00,0.0,24.6
2024/04/15 17:10:00,0.0,24.6
2024/04/15 17:20:00,0.0,24.4
2024/04/15 17:30:00,0.0,24.3
2024/04/15 17:40:00,0.0,24.2
2024/04/15 17:50:00,0.0,23.9
2024/04/15 18:00:00,0.0,23.6
2024/04/15 18:10:00,0.0,23.2
2024/04/15 18:20:00,0.0,22.8
2024/04/15 18:30:00,0.0,22.7
2024/04/15 18:40:00,0.0,22.8
2024/04/15 18:50:00,0.0,22.6
2024/04/15 19:00:00,0.0,22.4
2024/04/15 19:10:00,0.0,22.4
2024/04/15 19:20:00,0.0,22.8
2024/04/15 19:30:00,0.0,22.4
2024/04/15 19:40:00,0.0,21.8
2024/04/15 19:50:00,0.0,21.8
2024/04/15 20:00:00,0.0,21.9
2024/04/15 20:10:00,0.0,21.8
2024/04/15 20:20:00,0.0,21.9
2024/04/15 20:30:00,0.0,21.6
2024/04/15 20:40:00,0.0,20.9
2024/04/15 20:50:00,0.0,20.7
2024/04/15 21:00:00,0.0,20.9
2024/04/15 21:10:00,0.0,21.1
2024/04/15 21:20:00,0.0,21.0
2024/04/15 21:30:00,0.0,20.7
2024/04/15 21:40:00,0.0,20.4
2024/04/15 21:50:00,0.0,20.7
2024/04/15 22:00:00,0.0,21.4
2024/04/15 22:10:00,0.0,21.1
2024/04/15 22:20:00,0.0,21.3
2024/04/15 22:30:00,0.0,21.0
2024/04/15 22:40:00,0.0,20.9
2024/04/15 22:50:00,0.0,20.7
2024/04/15 23:00:00,0.0,21.5
2024/04/15 23:10:00,0.0,21.8
2024/04/15 23:20:00,0.0,21.6
2024/04/15 23:30:00,0.0,21.6
2024/04/15 23:40:00,0.0,21.7
2024/04/15 23:50:00,0.0,21.8
